| time (UTC) | temp F | wind direction | speed MPH | gust MPH | rain 1hr in | rain 24hr in | rain mn in | humidity % | barometer mb |
| 20260903081502 | 82 | 113 | 5.0 | 6.0 | 0.00 | 0.00 | 0.00 | 63 | 1008.5 |
| 20260903080302 | 81 | 180 | 2.0 | 5.0 | 0.00 | 0.00 | 0.00 | 65 | 1008.1 |
| 20260903074102 | 81 | 113 | 8.0 | 8.0 | 0.00 | 0.00 | 0.00 | 63 | 1008.5 |
| 20260903071702 | 82 | 90 | 3.0 | 3.0 | 0.00 | 0.00 | 0.00 | 63 | 1008.5 |
| 20260903070602 | 82 | 158 | 2.0 | 4.0 | 0.00 | 0.00 | 0.00 | 63 | 1008.8 |
| 20260903064402 | 82 | 180 | 2.0 | 5.0 | 0.00 | 0.00 | 0.00 | 63 | 1008.5 |
| 20260903063402 | 82 | 158 | 1.0 | 3.0 | 0.00 | 0.00 | 0.00 | 63 | 1008.5 |
| 20260903054903 | 88 | 248 | 3.0 | 3.0 | 0.00 | 0.00 | 0.00 | 55 | 1008.5 |
| 20260903015403 | 88 | 90 | 2.0 | 2.0 | 0.00 | 0.00 | 0.00 | 55 | 1008.1 |
| 20260903013702 | 88 | 158 | 2.0 | 3.0 | 0.00 | 0.00 | 0.00 | 55 | 1007.8 |
| 20260903000403 | 93 | 203 | 2.0 | 2.0 | 0.00 | 0.00 | 0.00 | 50 | 1007.8 |
| 20260902235305 | 94 | 225 | 4.0 | 6.0 | 0.00 | 0.00 | 0.00 | 50 | 1007.8 |
| 20260902234103 | 95 | 225 | 3.0 | 3.0 | 0.00 | 0.00 | 0.00 | 50 | 1007.8 |
| 20260902233003 | 95 | 113 | 4.0 | 6.0 | 0.00 | 0.00 | 0.00 | 49 | 1008.1 |
| 20260902231902 | 95 | 45 | 3.0 | 5.0 | 0.00 | 0.00 | 0.00 | 48 | 1008.1 |
| 20260902230804 | 96 | 203 | 7.0 | 7.0 | 0.00 | 0.00 | 0.00 | 48 | 1007.8 |
| 20260902174002 | 90 | 203 | 2.0 | 4.0 | 0.00 | 0.00 | 0.00 | 55 | 1009.8 |
| 20260902172902 | 89 | 113 | 8.0 | 8.0 | 0.00 | 0.00 | 0.00 | 55 | 1009.8 |
| 20260902171202 | 88 | 135 | 4.0 | 4.0 | 0.00 | 0.00 | 0.00 | 55 | 1009.8 |
| 20260902170004 | 87 | 158 | 3.0 | 3.0 | 0.00 | 0.00 | 0.00 | 55 | 1010.2 |
| 20260902124002 | 74 | 158 | 0.0 | 0.0 | 0.00 | 0.00 | 0.00 | 79 | 1010.5 |
| 20260902122102 | 73 | 158 | 1.0 | 1.0 | 0.00 | 0.00 | 0.00 | 80 | 1010.5 |
| 20260902115503 | 72 | 158 | 2.0 | 2.0 | 0.00 | 0.00 | 0.00 | 81 | 1010.5 |
| 20260902112002 | 72 | 180 | 0.0 | 0.0 | 0.00 | 0.00 | 0.00 | 83 | 1010.2 |
| 20260902105702 | 73 | 248 | 1.0 | 4.0 | 0.00 | 0.00 | 0.00 | 83 | 1010.5 |
| 20260902104602 | 73 | 225 | 2.0 | 3.0 | 0.00 | 0.00 | 0.00 | 83 | 1010.5 |
| 20260902103502 | 73 | 248 | 0.0 | 2.0 | 0.00 | 0.00 | 0.00 | 83 | 1010.5 |
| 20260902102403 | 73 | 270 | 1.0 | 1.0 | 0.00 | 0.00 | 0.00 | 81 | 1010.2 |
| 20260902101302 | 73 | 270 | 0.0 | 0.0 | 0.00 | 0.00 | 0.00 | 81 | 1010.8 |
| 20260902100003 | 73 | 270 | 0.0 | 0.0 | 0.00 | 0.00 | 0.00 | 81 | 1010.5 |
| 20260902094802 | 73 | 248 | 0.0 | 0.0 | 0.00 | 0.00 | 0.00 | 81 | 1010.8 |
| 20260902093701 | 74 | 248 | 0.0 | 0.0 | 0.00 | 0.00 | 0.00 | 81 | 1010.8 |
| 20260902092602 | 74 | 180 | 0.0 | 0.0 | 0.00 | 0.00 | 0.00 | 81 | 1010.5 |
| 20260902091402 | 75 | 225 | 2.0 | 2.0 | 0.00 | 0.00 | 0.00 | 79 | 1010.5 |
| 20260902090302 | 75 | 248 | 1.0 | 1.0 | 0.00 | 0.00 | 0.00 | 75 | 1010.5 |
| 20260902084103 | 77 | 158 | 0.0 | 1.0 | 0.00 | 0.00 | 0.00 | 73 | 1010.8 |
| 20260902083003 | 77 | 113 | 2.0 | 2.0 | 0.00 | 0.00 | 0.00 | 70 | 1011.2 |